Location: Courçay
(47.2523°N, 0.8761°E)
Time: 21:06:41
(UTC+00:00)

Cosmos 1862 - Pass Details

Date: 18 November 2025
Orbit: 473 x 485 km, 82.5° (Epoch: 10 December)

Event Time Altitude Azimuth Distance (km) Brightness Sun altitude
Rises 17:50:32 0° 353° (N) 2,543 6.7 -15.6°
Reaches altitude 10° 17:52:39 10° 358° (N) 1,661 5.7 -15.9°
Maximum altitude 17:56:15 60° 78° (ENE) 553 3.0 -16.5°
Drops below altitude 10° 17:59:50 10° 160° (SSE) 1,655 5.7 -17.1°
Sets 18:01:56 0° 164° (SSE) 2,532 6.7 -17.5°
